Location: Champaign/Urbana Astronomical Society Observatory
(40.0333°N, 88.2833°W)
Time: 19:54:32
(UTC-05:00)

Envisat - Visible Passes

Search period start: 24 September 2018 00:00
Search period end: 04 October 2018 00:00
Orbit: 764 x 766 km, 98.2° (Epoch: 23 September)

Date Brightness Start Highest point End Pass type
(mag) Time Alt. Az. Time Alt. Az. Time Alt. Az.
24 Sep 3.4 19:20:43 10° SE 19:25:29 42° ENE 19:30:15 10° N visible
24 Sep 5.3 21:00:48 10° SW 21:04:39 21° W 21:08:30 10° NW visible
25 Sep 3.9 20:22:48 10° S 20:27:41 48° W 20:32:37 10° NNW visible
26 Sep 2.9 19:45:53 10° SSE 19:50:56 75° ENE 19:56:01 10° N visible
26 Sep 5.9 21:28:41 10° WSW 21:30:29 12° W 21:32:16 10° WNW visible
27 Sep 3.7 19:09:50 10° SE 19:14:22 34° ENE 19:18:55 10° N visible
27 Sep 5.0 20:49:06 10° SSW 20:53:23 27° W 20:57:41 10° NW visible
28 Sep 3.5 20:11:28 10° S 20:16:29 62° W 20:21:32 10° NNW visible
29 Sep 3.0 19:34:49 10° SSE 19:39:47 59° ENE 19:44:47 10° N visible
29 Sep 5.7 21:16:14 10° SW 21:19:10 15° W 21:22:07 10° NW visible
30 Sep 3.9 18:59:03 10° ESE 19:03:17 27° ENE 19:07:31 10° N visible
30 Sep 4.5 20:37:33 10° SSW 20:42:08 34° W 20:46:45 10° NNW visible
01 Oct 3.1 20:00:14 10° S 20:05:18 79° WSW 20:10:24 10° NNW visible
02 Oct 3.3 19:23:49 10° SE 19:28:39 47° ENE 19:33:30 10° N visible
02 Oct 5.4 21:04:16 10° SW 21:07:53 20° W 21:11:32 10° NW visible
03 Oct 4.1 20:26:06 10° S 20:30:54 44° W 20:35:46 10° NNW visible
